Weather History for KCSM - November, 2012

Change the Weather History Date:

Friday, November 16, 2012

  Actual Average Record
Temperature  
Mean Temperature 48 °F -  
Max Temperature 61 °F 57 °F 80 °F (2013)
Min Temperature 36 °F 38 °F 17 °F (2014)
Degree Days  
Heating Degree Days 16    
Moisture  
Dew Point 35 °F    
Average Humidity 64    
Maximum Humidity 93    
Minimum Humidity 38    
Precipitation  
Precipitation 0.00 in - - ()
Sea Level Pressure  
Sea Level Pressure 30.37 in    
Wind  
Wind Speed 6 mph (SE)    
Max Wind Speed 12 mph    
Max Gust Speed -    
Visibility 10 miles    
Events      
Averages and records for this station are not official NWS values.
T = Trace of Precipitation, MM = Missing Value Source: NWS Daily Summary

Daily Weather History Graph

Daily Weather History Graph

Search for Another Location

Airport or City:

Trip Planner

Search our weather history database for the weather conditions in past years. The results will help you decide how hot, cold, wet, or windy it might be!

Date:

Astronomy

Nov. 16, 2012 Rise Set
Actual Time 7:13 AM CST 5:29 PM CST
Civil Twilight 6:46 AM CST 5:56 PM CST
Nautical Twilight 6:15 AM CST 6:27 PM CST
Astronomical Twilight 5:45 AM CST 6:57 PM CST
Moon 10:07 AM CST (11/16) 8:32 PM CST (11/16)
Length of Visible Light 11h 10m
Length of Day
10h 16m
Waxing Crescent, 12% of the Moon is Illuminated
Nov 16
Waxing Crescent
Nov 20
First Quarter
Nov 28
Full
Dec 6
Last Quarter
Dec 13
New

Hourly Weather History & Observations

Time (CST) Temp. Windchill Dew Point Humidity Pressure Visibility Wind Dir Wind Speed Gust Speed Precip Events Conditions
12:53 AM 41.0 °F 37.1 °F 35.1 °F 79% 30.37 in 10.0 mi Variable 5.8 mph - N/A   Clear
1:53 AM 41.0 °F 37.1 °F 34.0 °F 76% 30.37 in 10.0 mi South 5.8 mph - N/A   Clear
2:53 AM 37.9 °F - 33.1 °F 83% 30.37 in 10.0 mi Calm Calm - N/A   Clear
3:53 AM 37.9 °F 33.5 °F 35.1 °F 89% 30.38 in 10.0 mi NNW 5.8 mph - N/A   Clear
4:53 AM 37.9 °F 32.7 °F 35.1 °F 89% 30.38 in 10.0 mi NNW 6.9 mph - N/A   Scattered Clouds
5:53 AM 37.0 °F 32.4 °F 35.1 °F 93% 30.40 in 9.0 mi NNW 5.8 mph - N/A   Clear
6:53 AM 36.0 °F 32.1 °F 34.0 °F 93% 30.41 in 8.0 mi NNE 4.6 mph - N/A   Partly Cloudy
7:53 AM 39.9 °F 37.8 °F 37.9 °F 93% 30.42 in 7.0 mi North 3.5 mph - N/A   Overcast
8:53 AM 46.0 °F - 39.0 °F 76% 30.42 in 10.0 mi Calm Calm - N/A   Clear
9:53 AM 51.1 °F - 36.0 °F 56% 30.43 in 10.0 mi Variable 3.5 mph - N/A   Clear
10:53 AM 55.0 °F - 35.1 °F 47% 30.43 in 10.0 mi ESE 4.6 mph - N/A   Clear
11:53 AM 57.0 °F - 36.0 °F 45% 30.41 in 10.0 mi East 4.6 mph - N/A   Clear
12:53 PM 59.0 °F - 37.0 °F 44% 30.38 in 10.0 mi SE 9.2 mph - N/A   Clear
1:53 PM 61.0 °F - 37.0 °F 41% 30.35 in 10.0 mi SE 11.5 mph - N/A   Clear
2:53 PM 61.0 °F - 35.1 °F 38% 30.33 in 10.0 mi SSE 9.2 mph - N/A   Clear
3:53 PM 61.0 °F - 35.1 °F 38% 30.32 in 10.0 mi South 10.4 mph - N/A   Clear
4:53 PM 57.9 °F - 35.1 °F 42% 30.32 in 10.0 mi South 9.2 mph - N/A   Clear
5:53 PM 50.0 °F - 34.0 °F 54% 30.33 in 10.0 mi SSE 5.8 mph - N/A   Clear
6:53 PM 46.9 °F - 34.0 °F 61% 30.35 in 10.0 mi SSE 8.1 mph - N/A   Clear
7:53 PM 46.0 °F 41.4 °F 34.0 °F 63% 30.35 in 10.0 mi SSE 9.2 mph - N/A   Clear
8:53 PM 46.0 °F 41.0 °F 32.0 °F 58% 30.34 in 10.0 mi SSE 10.4 mph - N/A   Clear
9:53 PM 46.9 °F - 30.9 °F 54% 30.34 in 10.0 mi SSE 10.4 mph - N/A   Clear
10:53 PM 45.0 °F 39.7 °F 30.9 °F 58% 30.33 in 10.0 mi SSE 10.4 mph - N/A   Clear
11:53 PM 44.1 °F 38.1 °F 30.9 °F 60% 30.33 in 10.0 mi SSE 11.5 mph - N/A   Clear